Weather History for Wahoo, NE

Change the Weather History Date:

Sunday, January 8, 2012

  Actual Average Record
Temperature  
Mean Temperature 34 °F -  
Max Temperature 44 °F 29 °F 54 °F (1990)
Min Temperature 25 °F 8 °F -13 °F (1970)
Degree Days  
Heating Degree Days 30    
Moisture  
Dew Point 25 °F    
Average Humidity 71    
Maximum Humidity 88    
Minimum Humidity 45    
Precipitation  
Precipitation 0.00 in - - ()
Sea Level Pressure  
Sea Level Pressure 30.28 in    
Wind  
Wind Speed 2 mph (WSW)    
Max Wind Speed 7 mph    
Max Gust Speed -    
Visibility 10 miles    
Events      
Averages and records for this station are not official NWS values.
T = Trace of Precipitation, MM = Missing Value Source: NWS Daily Summary

Daily Weather History Graph

Daily Weather History Graph

Search for Another Location

Airport:

Trip Planner

Search our weather history database for the weather conditions in past years. The results will help you decide how hot, cold, wet, or windy it might be!

Date:

Astronomy

Jan. 08, 2012 Rise Set
Actual Time 7:51 AM CST 5:14 PM CST
Civil Twilight 7:21 AM CST 5:45 PM CST
Nautical Twilight 6:46 AM CST 6:19 PM CST
Astronomical Twilight 6:13 AM CST 6:52 PM CST
Moon 4:58 PM CST (1/8) 7:11 AM CST (1/8)
Length of Visible Light 10h 23m
Length of Day
9h 22m
Full, 100% of the Moon is Illuminated
Jan 8
Full
Jan 9
Full
Jan 16
Last Quarter
Jan 23
New
Jan 30
First Quarter

Hourly Weather History & Observations

Time (CST) Temp. Windchill Dew Point Humidity Pressure Visibility Wind Dir Wind Speed Gust Speed Precip Events Conditions
12:15 AM 28.4 °F - 23.7 °F 83% 30.24 in 10.0 mi Calm Calm - N/A   Scattered Clouds
12:35 AM 27.3 °F - 23.7 °F 86% 30.25 in 10.0 mi Calm Calm - N/A   Mostly Cloudy
12:55 AM 27.1 °F - 22.6 °F 83% 30.25 in 10.0 mi Calm Calm - N/A   Overcast
1:15 AM 27.1 °F 23.2 °F 22.8 °F 84% 30.25 in 10.0 mi WSW 3.5 mph - N/A   Mostly Cloudy
1:35 AM 30.0 °F 26.5 °F 22.6 °F 74% 30.25 in 10.0 mi WSW 3.5 mph - N/A   Scattered Clouds
1:55 AM 26.8 °F - 21.6 °F 81% 30.25 in 10.0 mi Calm Calm - N/A   Scattered Clouds
2:15 AM 25.7 °F - 20.3 °F 80% 30.26 in 10.0 mi Calm Calm - N/A   Mostly Cloudy
2:35 AM 26.1 °F 20.5 °F 21.9 °F 84% 30.26 in 10.0 mi SW 4.6 mph - N/A   Overcast
2:55 AM 28.2 °F 24.4 °F 22.6 °F 80% 30.27 in 10.0 mi West 3.5 mph - N/A   Mostly Cloudy
3:15 AM 28.4 °F - 23.0 °F 80% 30.27 in 10.0 mi Calm Calm - N/A   Scattered Clouds
3:35 AM 29.1 °F 25.4 °F 24.1 °F 81% 30.27 in 10.0 mi SW 3.5 mph - N/A   Scattered Clouds
3:55 AM 29.3 °F - 23.7 °F 80% 30.27 in 10.0 mi Calm Calm - N/A   Scattered Clouds
4:35 AM 28.6 °F - 23.7 °F 82% 30.27 in 10.0 mi Calm Calm - N/A   Scattered Clouds
4:55 AM 27.9 °F - 23.7 °F 84% 30.27 in 10.0 mi Calm Calm - N/A   Scattered Clouds
5:15 AM 27.9 °F - 24.1 °F 86% 30.27 in 10.0 mi Calm Calm - N/A   Scattered Clouds
5:35 AM 27.3 °F 22.0 °F 24.1 °F 88% 30.27 in 10.0 mi NNW 4.6 mph - N/A   Overcast
5:55 AM 27.5 °F 23.6 °F 23.9 °F 86% 30.27 in 10.0 mi NNE 3.5 mph - N/A   Overcast
6:15 AM 27.3 °F 23.4 °F 23.9 °F 87% 30.27 in 10.0 mi North 3.5 mph - N/A   Mostly Cloudy
6:35 AM 27.5 °F 23.6 °F 23.9 °F 86% 30.28 in 10.0 mi North 3.5 mph - N/A   Mostly Cloudy
7:15 AM 28.2 °F - 24.6 °F 86% 30.28 in 10.0 mi Calm Calm - N/A   Overcast
7:35 AM 28.4 °F - 25.0 °F 87% 30.28 in 10.0 mi Calm Calm - N/A   Overcast
7:55 AM 29.1 °F - 24.3 °F 82% 30.28 in 10.0 mi Calm Calm - N/A   Overcast
8:15 AM 29.3 °F - 25.0 °F 84% 30.29 in 10.0 mi Calm Calm - N/A   Overcast
8:35 AM 29.7 °F - 26.2 °F 87% 30.30 in 10.0 mi Calm Calm - N/A   Scattered Clouds
8:55 AM 30.2 °F 26.7 °F 26.4 °F 86% 30.31 in 10.0 mi SSE 3.5 mph - N/A   Clear
9:15 AM 31.1 °F 27.7 °F 25.9 °F 81% 30.31 in 10.0 mi West 3.5 mph - N/A   Scattered Clouds
9:35 AM 32.0 °F 28.7 °F 26.4 °F 80% 30.32 in 10.0 mi SW 3.5 mph - N/A   Overcast
9:55 AM 32.9 °F - 25.5 °F 74% 30.32 in 10.0 mi Calm Calm - N/A   Overcast
10:15 AM 33.3 °F 30.2 °F 26.4 °F 76% 30.33 in 10.0 mi SSW 3.5 mph - N/A   Scattered Clouds
10:35 AM 35.1 °F 32.2 °F 26.2 °F 70% 30.34 in 10.0 mi WSW 3.5 mph - N/A   Clear
10:55 AM 37.4 °F 32.8 °F 26.4 °F 65% 30.33 in 10.0 mi SW 5.8 mph - N/A   Clear
11:15 AM 40.1 °F 38.0 °F 25.0 °F 55% 30.32 in 10.0 mi WSW 3.5 mph - N/A   Scattered Clouds
11:35 AM 40.5 °F 38.4 °F 24.4 °F 53% 30.31 in 10.0 mi WSW 3.5 mph - N/A   Overcast
11:55 AM 40.6 °F 38.6 °F 26.2 °F 57% 30.30 in 10.0 mi West 3.5 mph - N/A   Overcast
12:15 PM 40.3 °F - 26.8 °F 59% 30.29 in 10.0 mi Calm Calm - N/A   Overcast
12:35 PM 41.2 °F 39.2 °F 27.1 °F 57% 30.28 in 10.0 mi South 3.5 mph - N/A   Overcast
1:15 PM 42.8 °F 40.1 °F 27.5 °F 55% 30.28 in 10.0 mi West 4.6 mph - N/A   Overcast
1:35 PM 42.8 °F 41.1 °F 28.4 °F 57% 30.27 in 10.0 mi West 3.5 mph - N/A   Overcast
1:55 PM 43.7 °F 40.3 °F 27.1 °F 52% 30.27 in 10.0 mi SW 5.8 mph - N/A   Overcast
2:15 PM 43.7 °F 39.7 °F 26.4 °F 51% 30.26 in 10.0 mi WSW 6.9 mph - N/A   Overcast
2:35 PM 43.9 °F 39.9 °F 25.0 °F 47% 30.25 in 10.0 mi SW 6.9 mph - N/A   Overcast
2:55 PM 43.9 °F 39.9 °F 24.8 °F 47% 30.24 in 10.0 mi SSW 6.9 mph - N/A   Overcast
3:15 PM 44.2 °F 40.3 °F 25.3 °F 47% 30.24 in 10.0 mi WSW 6.9 mph - N/A   Mostly Cloudy
3:35 PM 44.2 °F 41.0 °F 24.1 °F 45% 30.26 in 10.0 mi WSW 5.8 mph - N/A   Mostly Cloudy
3:55 PM 43.7 °F 40.3 °F 24.6 °F 47% 30.26 in 10.0 mi WSW 5.8 mph - N/A   Overcast
4:15 PM 42.3 °F 38.6 °F 24.8 °F 50% 30.26 in 10.0 mi WSW 5.8 mph - N/A   Mostly Cloudy
4:35 PM 40.8 °F 36.9 °F 27.5 °F 59% 30.27 in 10.0 mi West 5.8 mph - N/A   Scattered Clouds
4:55 PM 39.9 °F 36.7 °F 28.2 °F 63% 30.27 in 10.0 mi WSW 4.6 mph - N/A   Overcast
5:15 PM 39.0 °F 36.8 °F 28.4 °F 66% 30.27 in 10.0 mi WSW 3.5 mph - N/A   Mostly Cloudy
5:35 PM 38.5 °F 36.1 °F 28.4 °F 67% 30.26 in 10.0 mi SW 3.5 mph - N/A   Scattered Clouds
5:55 PM 37.8 °F 34.2 °F 28.0 °F 68% 30.26 in 10.0 mi SW 4.6 mph - N/A   Clear
6:15 PM 36.7 °F 32.9 °F 28.2 °F 71% 30.26 in 10.0 mi SW 4.6 mph - N/A   Clear
6:35 PM 36.3 °F 32.5 °F 27.7 °F 71% 30.27 in 10.0 mi SSW 4.6 mph - N/A   Clear
6:55 PM 31.8 °F 26.2 °F 25.5 °F 78% 30.25 in 10.0 mi SSW 5.8 mph - N/A   Clear
7:15 PM 32.0 °F 28.7 °F 25.9 °F 78% 30.26 in 10.0 mi South 3.5 mph - N/A   Clear
7:35 PM 30.2 °F - 24.4 °F 79% 30.26 in 10.0 mi Calm Calm - N/A   Clear
7:55 PM 30.4 °F 24.5 °F 26.2 °F 85% 30.26 in 10.0 mi SW 5.8 mph - N/A   Clear
8:15 PM 31.1 °F 26.4 °F 25.9 °F 81% 30.26 in 10.0 mi SW 4.6 mph - N/A   Clear
8:35 PM 31.6 °F 26.0 °F 26.8 °F 82% 30.26 in 10.0 mi WSW 5.8 mph - N/A   Clear
8:55 PM 28.9 °F 23.9 °F 24.8 °F 84% 30.26 in 10.0 mi SSW 4.6 mph - N/A   Clear
9:15 PM 28.6 °F - 24.3 °F 84% 30.25 in 10.0 mi Calm Calm - N/A   Clear
9:35 PM 25.3 °F 21.1 °F 22.5 °F 89% 30.25 in 10.0 mi SSW 3.5 mph - N/A   Clear
9:55 PM 26.8 °F 22.8 °F 23.9 °F 89% 30.25 in 10.0 mi SSW 3.5 mph - N/A   Clear
10:15 PM 27.0 °F 21.6 °F 24.3 °F 90% 30.25 in 10.0 mi SSW 4.6 mph - N/A   Clear
10:35 PM 25.5 °F 19.9 °F 22.3 °F 88% 30.25 in 10.0 mi SSW 4.6 mph - N/A   Clear
11:15 PM 26.1 °F - 23.4 °F 90% 30.25 in 10.0 mi Calm Calm - N/A   Clear
11:35 PM 24.8 °F - 22.6 °F 91% 30.25 in 10.0 mi Calm Calm - N/A   Clear
11:55 PM 26.6 °F - 24.4 °F 92% 30.24 in 10.0 mi Calm Calm - N/A   Clear